Voltar ao catálogo

FENGYUN 1C DEB

AtivoSSO
NORAD 36244·DEBRIS·🇨🇳 China

Lançado May 10, 1999 de Taiyuan Satellite Launch Center

Loading…

Próximas Passagens (próximas 24 horas)

TLE

AtualizadoSource: Space-Track

Época: Sep 13, 2026, 06:36 UTC

1 36244U 99025DVV 26256.27528916  .00002251  00000-0  93680-3 0  9994
2 36244  98.9403  17.1345 0049217 211.5977 148.2245 14.26744986958919

Acompanhe FENGYUN 1C DEB em tempo real com AllMySat

Download on the App Store